Location: Newark
(20.1720°N, 90.0102°W)
Time: 10:39:31
(UTC+00:00)

Envisat - Pass Details

Date: 03 September 2019
Orbit: 764 x 766 km, 98.1° (Epoch: 15 September)

Event Time Altitude Azimuth Distance (km) Brightness Sun altitude
Rises 01:24:52 0° 201° (SSW) 3,218 6.3 -17.0°
Reaches altitude 10° 01:27:49 10° 219° (SW) 2,294 5.8 -17.6°
Maximum altitude 01:31:17 19° 262° (W) 1,773 5.7 -18.4°
Drops below altitude 10° 01:34:46 10° 306° (NW) 2,298 6.5 -19.2°
Sets 01:37:45 0° 325° (NW) 3,225 7.1 -19.9°
